Theta_e
317 317 316 315 314 318 321 322 325 324 323 322 316 319 319 318 321 318 319 318 317 319 319 320 320 320 321 321 322 324 327 329 328 327 332 334 333 332 329 328 329 331 333 332 332 329 326 329 331 331 329 328 328 328 328 329 329 328 326 323 320 320 320 319 319 317 317 318 318 317 315 310 313 324 328 329 331 331 331 329 326 319 311 309 309 314 319 320 320 319 318 320 321 318 314 311 311
316 316 315 314 316 320 322 323 331 329 324 318 315 319 318 318 320 319 322 319 319 321 322 322 321 322 322 321 322 321 325 327 324 328 335 334 334 332 329 329 328 331 333 332 332 331 329 329 331 331 328 327 327 327 328 328 328 327 326 323 320 318 318 319 318 318 317 318 317 317 316 313 318 326 326 328 330 330 331 330 327 318 311 309 308 315 320 319 319 319 320 317 315 316 316 312 311
316 316 315 316 320 323 324 324 327 328 323 318 318 320 318 319 321 322 321 318 321 323 322 322 321 321 322 325 326 323 325 327 329 332 335 335 333 331 331 329 329 332 332 331 332 332 331 330 330 329 327 326 325 325 326 326 327 326 326 323 319 317 317 318 319 318 318 317 316 317 316 316 322 326 326 328 329 330 331 330 327 319 310 308 309 316 319 319 318 317 318 318 318 320 319 315 313
316 315 316 319 323 324 329 330 329 326 321 319 319 320 323 325 324 322 317 317 322 322 319 319 322 321 323 329 327 325 328 330 332 334 335 335 333 332 332 329 330 332 332 332 331 331 331 330 329 327 326 325 324 323 324 326 327 327 326 323 319 317 317 318 319 319 319 317 316 316 316 317 320 325 327 329 329 330 330 329 328 321 311 307 311 316 318 318 317 316 318 321 323 323 321 317 315
315 314 317 320 323 324 326 326 326 325 319 320 319 320 328 329 324 320 316 318 320 318 318 321 325 324 324 328 325 325 329 330 332 334 333 334 333 332 331 330 330 331 332 332 331 331 330 329 327 326 325 324 323 323 325 327 327 328 327 323 319 317 316 317 319 320 320 318 316 316 316 316 317 321 326 329 329 329 329 329 329 324 312 307 312 316 317 319 318 318 322 323 323 323 323 321 319
315 315 319 320 321 321 322 319 319 324 320 322 322 322 328 323 318 317 316 317 317 318 319 320 325 325 325 327 325 324 326 330 331 331 331 334 335 333 332 330 330 331 331 331 331 330 329 328 327 326 324 323 323 323 325 326 326 328 328 324 319 317 316 317 319 321 321 319 317 316 316 315 316 320 325 327 329 329 329 328 329 325 312 307 312 316 318 319 318 318 321 322 322 322 323 323 322
315 318 320 322 321 318 325 325 321 323 318 317 323 325 323 317 315 316 317 317 317 317 318 319 322 324 326 327 326 325 325 328 329 328 332 335 336 334 332 331 330 330 330 331 330 330 329 328 327 326 324 323 323 323 325 325 325 326 327 325 319 318 316 317 320 322 322 321 318 317 316 314 314 317 322 325 327 328 328 327 328 324 312 307 311 316 317 316 315 314 316 317 317 317 319 322 323
317 320 321 325 326 323 327 324 321 323 315 312 318 322 319 316 315 316 317 317 317 317 318 320 320 321 324 324 325 325 323 325 327 329 333 335 336 334 332 332 331 330 329 330 330 330 330 329 328 325 323 324 322 323 323 323 324 324 327 326 321 318 317 316 319 322 323 321 319 317 317 315 311 312 316 320 324 325 325 325 326 321 311 307 310 314 314 312 311 312 314 315 314 314 316 319 321
319 321 320 322 326 329 327 318 316 319 317 316 316 318 317 316 316 315 316 316 316 317 318 320 318 319 322 322 324 324 322 325 327 330 334 334 335 333 332 333 331 330 328 328 330 330 330 329 328 325 324 324 322 322 323 323 322 322 325 325 322 318 317 317 318 322 324 322 320 318 317 316 311 309 311 313 316 320 321 321 322 318 309 307 309 311 311 311 312 314 316 317 316 316 316 317 318
319 321 318 323 329 325 321 317 318 319 317 317 316 317 317 316 316 315 316 315 315 316 317 318 317 318 321 323 325 324 323 326 327 331 335 334 335 333 332 333 332 330 328 328 328 329 330 329 328 326 324 324 323 324 323 323 321 321 323 323 323 320 318 317 318 321 324 323 321 319 318 317 314 309 308 308 309 312 314 315 317 316 309 306 308 309 311 313 316 317 317 317 317 317 317 318 319
320 320 318 326 330 321 319 320 321 322 317 315 315 316 317 316 315 314 315 315 315 316 316 317 318 319 321 323 325 324 323 325 326 330 333 335 336 334 332 333 333 331 328 328 328 328 329 328 328 326 324 324 324 325 324 322 321 322 322 323 324 324 320 317 317 320 323 323 321 321 319 318 316 312 309 307 306 307 308 309 312 312 308 306 307 310 314 316 317 317 317 317 317 317 318 319 320
318 322 330 331 327 323 325 322 318 320 316 317 317 316 317 315 315 314 315 315 315 316 316 317 318 319 321 322 323 323 323 324 326 329 331 334 336 334 333 333 334 332 329 329 329 328 328 327 328 327 326 325 324 325 324 323 323 323 322 322 323 324 323 319 317 319 322 324 323 322 320 318 317 316 312 308 306 306 306 306 308 308 306 306 308 312 316 317 317 317 317 317 317 318 318 319 321
319 323 333 325 320 323 324 320 318 319 318 319 317 315 317 314 315 316 315 315 315 316 316 317 318 319 322 321 320 322 322 324 328 331 329 332 335 334 334 333 333 333 331 331 331 330 329 328 328 328 327 326 325 325 325 324 323 322 322 322 322 323 324 321 318 318 320 323 323 323 322 319 317 317 316 312 308 305 306 306 306 306 306 308 312 316 318 318 318 318 318 317 317 317 318 319 320
320 321 329 323 317 321 321 319 318 318 320 321 316 314 316 314 315 316 315 317 315 315 316 316 318 319 321 320 320 319 320 324 330 332 330 331 334 334 334 334 334 333 333 333 333 332 331 329 329 329 328 327 326 325 325 324 323 323 322 323 322 323 325 323 320 319 318 320 322 323 323 320 317 317 318 316 313 308 306 306 306 306 307 311 316 318 318 318 319 318 317 316 315 315 316 317 318
320 319 329 329 319 318 319 319 319 320 321 320 316 314 316 314 316 316 316 319 316 314 316 317 319 319 319 321 320 315 316 323 329 332 331 332 334 334 333 333 334 334 335 335 334 334 333 331 330 330 329 327 327 326 326 325 323 322 322 323 323 323 325 324 322 321 319 319 320 321 322 320 318 317 318 318 317 313 308 306 306 307 311 315 318 319 318 319 319 318 317 316 314 313 314 315 316
320 318 327 327 318 317 317 317 319 321 319 315 314 314 315 314 315 316 315 317 316 314 315 317 318 318 317 318 318 314 314 319 327 332 332 333 334 334 333 332 334 334 335 335 335 335 334 333 331 331 329 327 327 326 326 326 324 322 322 323 323 323 324 325 323 322 320 319 320 320 320 319 318 317 318 319 319 317 312 307 307 309 314 318 319 319 319 319 319 319 317 315 313 312 312 313 314
317 321 329 324 318 319 318 319 319 321 321 314 312 314 315 314 314 315 316 315 315 315 315 316 317 317 316 318 317 315 314 316 324 331 332 333 334 334 333 332 333 334 334 334 334 335 335 334 333 332 330 327 327 327 327 327 325 323 322 323 324 324 323 325 324 322 321 320 319 319 319 319 319 318 318 319 320 320 316 310 308 312 316 319 320 319 319 320 320 319 318 315 313 311 311 311 313
319 331 331 322 323 322 320 322 317 317 321 314 312 314 315 316 314 314 315 315 315 315 314 315 317 317 316 318 317 315 314 314 321 328 330 331 333 333 332 331 333 332 332 333 334 335 334 334 334 334 331 328 327 328 327 328 327 324 323 323 324 324 324 324 324 323 323 321 320 319 319 318 318 318 318 319 320 320 319 314 311 314 317 320 320 320 319 320 320 320 319 317 313 311 310 311 312
321 329 326 327 332 320 315 318 312 313 317 313 313 314 315 316 315 314 316 315 314 316 315 315 316 317 317 317 317 315 314 313 317 323 325 326 329 330 329 330 331 330 329 330 332 334 334 334 334 334 333 330 329 329 329 329 328 326 324 324 324 324 324 324 325 324 323 322 320 318 318 318 319 319 318 318 319 320 320 317 314 314 318 320 321 321 320 320 320 320 320 318 314 311 310 311 311
317 320 323 330 328 316 312 314 312 314 314 313 313 313 314 315 315 315 315 314 313 315 315 315 315 317 317 316 316 315 313 314 315 318 320 320 323 325 325 325 326 325 323 323 327 332 333 333 334 334 334 332 331 330 330 331 331 329 327 325 324 324 324 324 324 325 324 323 321 319 318 319 319 319 319 318 319 320 321 320 317 316 318 320 321 321 321 320 320 321 321 320 316 311 310 311 311
315 320 327 323 315 314 315 314 314 314 314 313 313 313 314 314 315 314 314 315 314 314 315 316 315 315 316 316 315 315 314 314 314 316 317 319 322 322 320 319 319 319 319 320 323 327 329 332 332 333 334 334 332 332 332 332 332 331 330 328 327 325 325 325 324 324 325 324 322 321 319 319 319 320 320 319 319 320 321 321 320 318 317 319 320 321 321 321 321 321 321 321 318 312 309 310 310
315 316 318 314 311 316 315 313 315 314 314 314 312 313 315 314 314 313 314 317 317 315 315 316 316 315 316 315 315 315 314 314 314 315 316 318 320 320 318 317 318 318 318 319 319 321 325 329 330 331 333 333 333 333 333 333 332 332 331 331 329 327 326 325 325 325 325 325 323 322 321 320 319 320 320 320 319 319 320 321 321 320 318 318 320 321 321 321 321 321 322 322 320 313 309 309 310
317 315 312 312 313 315 315 314 314 313 313 313 312 314 315 313 314 313 313 316 316 314 315 316 315 315 314 315 315 315 315 314 314 314 315 316 317 317 316 316 317 317 317 317 317 318 322 326 328 330 332 332 333 333 333 333 332 332 332 332 331 330 328 326 326 325 325 325 324 324 323 322 321 320 320 321 320 319 319 320 321 321 320 319 319 320 321 321 321 322 322 322 321 315 309 308 310
319 318 312 313 314 313 315 314 314 314 314 314 314 314 314 314 315 313 312 314 315 314 315 315 315 315 314 315 315 314 315 314 314 314 314 315 315 315 315 315 315 316 316 316 316 317 319 322 325 327 330 331 332 333 333 333 332 332 331 332 332 332 331 329 327 326 326 325 325 324 324 324 323 322 321 320 320 320 319 319 320 321 322 320 320 320 320 320 321 322 322 322 322 317 309 308 311
317 317 312 313 314 314 315 314 314 314 314 314 314 314 314 314 314 312 313 315 315 314 316 316 316 315 314 314 315 314 314 314 314 314 315 314 315 315 316 316 316 316 316 315 315 316 316 318 321 323 326 328 330 331 332 332 332 332 331 331 332 332 332 331 330 328 327 326 325 325 324 324 325 324 322 321 320 320 319 319 319 321 322 322 321 321 320 320 320 322 323 322 322 319 310 308 310
314 314 313 313 313 313 314 314 314 314 314 314 314 314 314 313 313 315 315 316 316 315 315 316 316 315 315 315 314 315 315 315 315 314 315 315 315 315 315 315 315 315 315 315 315 315 315 316 318 320 322 324 327 330 331 331 331 331 331 330 331 332 333 332 331 329 328 327 326 325 324 324 325 325 324 322 321 321 320 320 320 321 321 322 322 321 321 321 321 322 323 323 323 320 311 308 311
314 313 313 313 313 313 314 313 313 314 314 314 316 315 314 313 314 316 316 315 316 316 316 316 316 316 315 315 315 316 316 315 315 314 315 315 315 315 315 315 315 315 315 315 315 315 315 315 316 317 320 322 324 327 328 330 330 330 330 330 331 332 332 333 332 331 330 329 328 326 325 325 325 326 325 324 323 322 322 322 322 322 322 322 322 322 322 321 321 322 323 323 322 321 313 308 310
314 313 315 314 313 313 313 314 313 314 314 313 315 314 313 313 315 316 315 315 316 315 316 315 316 316 315 316 316 316 316 316 316 315 315 314 315 315 315 315 315 315 315 315 315 315 315 314 315 316 318 320 322 324 325 328 329 329 329 330 330 331 332 332 332 332 332 331 330 327 326 325 326 326 326 326 325 324 324 324 324 323 323 322 323 322 322 321 321 322 322 323 322 321 315 309 310
313 315 318 317 318 318 313 313 313 313 315 314 313 313 315 316 316 316 314 315 316 315 316 315 315 316 315 316 316 316 316 316 316 316 315 315 315 315 315 315 315 315 315 315 315 314 315 314 315 315 316 318 319 320 322 324 326 328 328 328 330 331 331 332 332 332 333 332 331 330 328 326 326 327 327 327 327 326 326 326 325 325 324 323 323 323 323 322 322 322 322 323 322 321 315 310 310
315 314 318 320 321 321 313 311 314 313 314 314 313 314 320 321 315 314 315 314 315 315 316 316 316 316 315 315 316 316 316 316 316 316 316 316 316 315 315 315 315 315 315 315 315 315 315 314 315 315 316 317 317 318 319 321 323 326 327 327 329 331 331 331 331 331 332 332 331 331 330 328 327 327 328 328 328 328 327 327 326 326 325 324 324 323 323 323 322 322 322 322 322 320 316 311 310
317 312 320 323 317 321 318 311 313 314 314 314 313 315 322 323 315 312 315 314 314 315 315 316 316 316 316 316 315 316 316 316 316 316 316 316 316 315 315 315 315 315 315 315 315 315 315 315 315 315 316 316 317 317 317 318 320 323 325 325 326 329 331 331 330 330 330 331 331 330 329 328 328 328 328 328 328 328 328 328 328 327 326 325 325 324 324 324 323 322 322 322 322 320 317 311 310
323 314 322 322 314 324 323 311 312 316 314 313 315 318 321 320 314 314 316 316 315 315 315 315 316 316 316 316 316 316 316 316 316 316 316 316 316 316 316 316 316 316 315 315 315 315 315 315 315 315 315 316 316 317 318 318 319 320 322 323 323 325 329 331 331 330 329 329 330 329 328 328 328 328 328 328 328 328 329 329 328 327 326 326 325 325 325 324 323 322 322 322 322 321 318 313 310
326 318 321 321 315 321 321 313 310 312 314 313 313 318 322 319 314 314 315 315 316 315 315 315 315 316 316 316 316 316 316 316 316 316 317 316 316 317 317 316 317 316 316 316 315 315 315 315 315 315 316 316 317 317 319 319 320 320 320 320 321 323 328 331 330 328 326 326 328 329 328 328 327 327 327 327 327 327 328 329 329 328 327 326 326 325 325 325 324 323 322 322 322 321 319 315 311
321 318 320 321 318 318 319 319 312 310 314 316 315 316 321 320 314 315 316 315 315 314 315 316 316 316 316 317 317 316 316 316 317 317 317 317 317 317 317 317 317 317 317 316 316 316 316 315 315 315 316 316 317 318 319 320 320 321 321 320 320 321 324 327 327 327 326 327 327 327 328 329 328 327 327 327 326 326 326 327 328 328 328 327 326 326 325 325 324 324 323 322 322 321 319 316 312
318 319 318 317 316 315 318 321 314 312 316 316 317 317 319 320 313 314 316 315 314 314 315 315 316 316 316 316 316 316 316 316 316 316 316 317 317 317 317 317 317 317 317 317 317 316 316 316 316 316 316 317 318 319 320 322 322 322 322 322 322 322 324 327 328 329 330 332 331 328 328 329 327 326 326 326 326 326 327 327 326 326 328 328 327 326 326 325 325 324 324 323 322 321 319 316 313
320 322 324 324 321 318 319 321 313 311 316 317 317 318 319 319 316 313 315 315 312 313 315 315 315 315 315 316 315 315 315 315 315 315 316 316 316 317 316 317 317 317 317 317 317 317 317 316 316 317 317 317 318 320 321 322 324 324 323 324 324 324 326 330 331 331 332 334 334 333 330 328 327 327 326 327 326 326 328 328 326 326 327 328 327 327 327 326 326 325 325 324 323 322 319 315 312
319 322 326 325 322 320 318 318 313 309 315 319 316 317 317 318 317 312 312 313 310 310 312 314 315 316 316 316 315 315 315 315 315 314 315 316 316 316 316 317 316 317 317 317 317 317 317 317 316 317 316 317 318 319 320 321 321 323 323 323 322 322 324 326 327 329 331 332 333 333 332 329 329 330 328 327 328 327 327 327 326 326 327 328 328 327 327 326 325 325 325 324 323 323 321 317 313
319 321 324 321 319 320 315 314 315 310 313 320 317 318 318 317 317 312 310 312 311 311 312 313 315 315 316 316 315 316 315 315 314 314 315 315 316 316 316 317 316 317 317 317 318 317 317 317 316 317 317 317 317 317 319 319 319 320 321 321 320 320 321 322 321 324 328 330 330 331 331 329 330 333 329 327 329 329 328 327 326 327 328 328 329 328 327 325 325 325 325 324 323 322 322 320 316
323 320 320 320 318 319 317 315 317 314 313 321 323 321 318 317 318 313 310 312 312 313 313 313 314 314 314 314 314 314 314 315 315 314 315 315 315 315 315 316 316 317 317 317 317 317 317 317 317 317 317 317 317 317 318 318 319 320 321 321 321 321 321 321 320 322 326 328 328 329 330 328 327 330 331 329 330 330 329 328 327 327 327 327 329 329 327 326 325 325 325 324 324 322 320 320 319
324 321 321 322 318 319 320 317 317 315 313 318 321 319 316 316 320 318 311 310 312 313 314 314 313 314 314 314 314 314 315 315 315 315 315 315 315 315 316 316 316 317 317 317 317 317 318 317 317 317 317 317 317 317 317 318 320 322 323 323 323 322 322 321 322 323 326 327 327 326 327 327 325 327 331 333 332 331 330 330 329 328 327 326 328 329 328 327 326 325 325 324 324 324 322 321 320
319 325 329 326 322 322 319 316 318 317 315 316 318 317 322 325 328 328 317 309 310 312 313 314 315 315 316 316 315 315 316 316 316 316 316 316 316 316 316 316 316 316 316 317 317 317 317 317 317 317 317 317 317 317 317 318 320 323 324 324 324 323 322 322 322 323 325 326 326 326 326 326 327 328 330 330 331 331 331 329 328 327 326 326 327 328 328 327 327 326 325 324 325 324 323 323 321
316 323 329 326 327 326 320 319 320 321 318 315 313 315 330 335 328 328 322 313 313 311 308 311 314 314 313 316 316 316 316 316 316 317 316 317 317 316 316 316 317 317 317 317 317 317 317 317 317 317 318 317 318 318 318 319 320 321 322 323 323 322 321 320 320 320 321 322 324 325 326 326 327 328 327 326 326 327 327 327 327 326 326 328 329 328 327 326 326 326 325 325 325 325 324 323 321
317 318 321 325 330 327 324 320 317 321 317 311 312 316 323 325 319 319 319 317 320 317 311 311 313 314 312 312 314 315 316 316 317 317 317 318 318 317 317 317 317 317 318 318 318 317 317 317 318 317 318 318 318 318 318 319 319 320 321 321 321 321 319 319 318 318 319 319 320 322 324 325 326 326 326 326 327 327 326 325 325 324 324 325 326 326 326 326 327 327 326 325 325 325 324 322 322
319 316 319 326 329 327 328 324 320 322 317 315 321 322 317 318 317 318 318 319 324 324 322 317 312 312 312 312 313 314 314 316 317 318 318 318 319 319 319 318 318 318 318 318 318 318 318 318 318 318 318 318 318 318 318 318 319 319 319 319 320 319 318 318 319 320 320 320 320 320 321 322 323 324 324 325 326 326 325 324 325 325 324 324 323 324 326 326 327 327 326 326 325 325 324 322 321
319 314 318 323 325 328 332 331 329 322 314 318 324 318 315 323 324 321 316 317 320 323 325 318 310 311 313 313 315 314 315 316 317 318 319 320 319 319 319 318 319 318 318 319 318 319 319 318 318 318 318 318 317 317 317 318 318 318 318 318 318 318 318 319 319 320 320 320 320 319 320 320 320 322 322 322 322 322 322 325 327 326 326 326 323 323 326 327 327 327 326 326 325 324 324 322 321
315 311 316 319 322 327 328 330 327 319 315 321 324 315 313 321 328 325 316 316 321 323 322 315 309 312 314 314 315 315 316 317 317 319 319 319 319 318 318 318 318 318 318 319 318 318 318 318 318 318 318 318 317 317 317 317 317 317 317 317 317 317 317 318 318 318 318 318 318 318 318 318 318 320 320 320 321 322 323 324 324 322 322 324 323 321 324 327 327 327 328 328 326 325 324 322 322
311 316 321 319 324 327 328 329 322 313 319 324 320 315 312 315 326 328 318 317 321 321 322 319 313 313 315 315 316 316 317 318 318 319 319 318 318 318 318 318 318 318 318 318 318 318 318 318 318 318 317 317 317 317 316 316 316 316 316 316 316 316 316 316 316 316 316 316 316 316 316 316 316 317 318 319 319 321 324 325 325 323 322 325 326 323 323 325 325 325 326 327 326 324 323 322 322
314 325 325 319 323 324 325 329 321 315 323 321 315 314 313 313 323 328 322 319 318 317 322 324 317 314 317 318 318 318 318 319 318 319 318 318 318 318 318 318 318 318 318 318 318 317 318 317 317 317 317 317 317 316 316 316 316 316 316 316 316 316 316 316 315 315 315 315 315 315 315 315 315 315 316 316 317 318 321 323 325 325 324 324 326 326 325 324 325 325 324 325 325 322 321 321 322
319 324 324 320 322 319 320 326 321 320 320 314 314 317 313 315 319 321 323 322 319 314 314 317 314 313 318 320 319 319 319 319 318 318 318 318 318 318 318 318 318 318 318 318 318 317 318 317 317 317 317 317 317 317 316 316 316 316 316 316 316 316 315 315 315 315 315 315 315 314 314 314 314 314 314 314 314 315 316 318 320 322 324 324 324 324 325 324 324 324 323 324 324 321 321 322 322
318 320 323 322 321 317 319 322 317 317 317 312 314 316 316 320 317 316 320 317 314 310 308 313 313 313 317 319 319 320 319 319 318 318 318 318 318 317 317 317 317 317 317 318 317 317 317 317 317 317 317 317 317 317 316 316 317 316 316 316 315 316 315 315 315 315 315 315 314 314 314 314 314 313 313 313 313 313 313 313 314 315 319 322 323 323 324 323 323 323 323 324 323 322 322 323 322
317 319 318 319 324 323 322 322 319 319 319 315 312 315 323 325 316 314 313 309 310 311 311 314 314 315 316 316 318 319 319 319 318 318 317 318 317 317 317 317 317 317 317 317 317 317 317 317 317 317 317 317 317 317 317 317 317 316 316 316 316 316 316 316 315 315 315 315 314 314 314 314 314 313 313 313 312 312 312 311 311 311 313 316 319 322 323 323 323 323 323 324 324 322 322 322 321
316 315 314 316 322 324 318 315 317 317 317 317 315 319 326 322 315 314 310 308 310 311 312 315 315 315 315 315 317 317 318 319 318 318 317 317 317 317 318 317 317 318 317 317 317 317 317 316 317 317 316 317 317 317 317 316 317 316 316 317 317 317 316 316 316 316 315 315 315 314 314 314 314 313 313 313 312 312 312 311 311 310 310 311 314 317 320 321 322 323 323 323 323 322 321 321 320
316 314 318 317 315 322 320 311 311 312 313 317 316 318 322 317 314 316 314 315 316 313 312 312 314 316 314 315 317 315 316 317 317 318 316 317 318 317 318 318 317 318 317 317 317 316 317 317 316 317 316 317 317 316 317 316 316 316 316 317 317 317 317 317 316 316 315 315 315 315 315 314 314 313 313 313 312 312 312 311 311 310 310 310 311 313 315 317 318 320 321 321 321 321 320 319 319
319 319 319 314 310 318 322 315 317 317 315 318 317 315 318 316 316 319 316 315 319 320 316 310 311 315 315 316 317 314 315 315 317 318 316 316 318 317 318 318 317 317 317 317 317 317 317 317 317 317 317 317 317 317 317 317 316 316 316 316 316 316 316 316 316 316 316 315 315 315 315 315 314 314 313 313 312 312 312 311 311 310 310 309 310 311 313 314 315 316 318 318 318 319 319 320 320
317 318 315 315 317 319 317 315 319 319 315 321 321 314 314 314 317 319 315 315 320 320 320 317 314 313 315 317 316 313 314 315 316 317 316 316 317 317 318 317 317 317 317 317 317 317 317 317 317 317 317 317 317 317 317 317 316 317 316 316 316 316 316 316 316 316 316 316 316 315 315 315 314 314 313 313 313 312 312 311 311 310 310 309 310 312 314 314 314 316 316 317 317 319 320 320 321
312 312 310 316 322 321 318 315 316 317 315 319 321 317 316 316 316 318 315 318 321 319 320 320 313 312 315 317 314 312 313 316 317 317 316 316 317 318 317 317 317 317 317 317 317 317 317 317 317 317 317 317 317 317 317 317 317 316 316 316 316 316 316 316 316 316 315 316 316 315 315 315 314 314 313 313 313 313 312 311 311 310 310 309 310 312 313 314 315 316 317 317 318 319 320 320 321
315 316 314 316 317 317 319 316 314 319 319 319 319 316 320 322 318 316 314 317 321 321 322 318 312 313 317 314 312 312 314 317 318 318 317 317 317 318 317 317 317 316 317 317 317 317 317 317 317 316 316 316 317 317 316 316 316 316 316 316 316 316 316 316 315 315 315 315 316 316 315 315 314 314 314 313 313 313 312 311 311 310 309 308 310 312 314 315 317 317 318 319 319 320 320 321 321
315 316 316 317 316 315 317 315 313 316 316 319 318 313 318 325 320 317 317 317 316 314 313 313 311 312 313 311 311 313 315 317 318 318 318 317 317 318 317 317 317 316 317 316 316 316 316 316 316 316 316 316 316 316 316 316 316 316 316 316 316 316 316 316 315 315 315 315 315 315 315 315 315 314 314 313 313 313 312 311 311 311 309 308 309 313 315 316 317 318 318 319 320 320 320 320 320
Wind_Speed
7 7 7 5 5 3 3 2 0 2 4 2 1 1 2 2 2 2 3 1 1 1 2 7 10 13 8 7 8 8 7 6 6 4 3 9 21 21 19 21 19 18 18 17 17 16 16 16 15 14 14 14 13 12 12 12 12 11 11 11 11 11 11 10 10 11 12 12 12 12 13 14 17 20 19 17 15 13 11 9 8 8 9 10 11 13 14 15 15 16 16 17 15 15 15 17 18
6 6 5 3 3 2 3 1 1 3 5 2 2 2 2 2 1 5 6 3 4 7 13 16 15 14 11 12 11 9 5 1 5 5 10 21 25 21 21 21 19 19 18 18 17 16 16 15 14 14 13 13 12 11 11 11 10 10 11 11 11 10 10 10 10 11 12 12 11 11 11 13 17 18 17 16 14 13 11 9 8 8 8 9 10 13 14 14 15 16 16 16 16 16 16 17 18
5 5 3 2 2 1 1 2 1 1 4 2 4 3 1 1 5 7 6 5 11 17 17 15 12 10 8 8 5 3 2 1 6 11 19 26 25 23 22 21 20 19 19 18 17 17 16 15 14 13 13 12 11 10 9 9 9 10 10 10 10 10 10 9 10 11 12 12 11 11 11 13 16 16 15 15 13 12 11 9 8 8 8 8 10 12 14 14 14 15 15 16 16 17 17 16 16
4 3 2 2 1 0 2 3 2 4 3 3 3 4 2 4 7 6 4 9 17 15 8 6 6 5 3 5 5 3 3 5 12 19 24 26 22 24 23 21 21 19 19 18 17 17 16 15 14 13 12 11 9 8 8 8 8 8 9 10 9 9 10 9 9 11 12 12 11 11 11 12 14 15 15 13 12 11 9 8 7 7 7 7 10 12 13 14 14 14 15 15 16 18 17 15 15
3 2 2 2 1 0 3 3 2 5 4 5 2 5 5 6 7 5 6 11 14 6 3 5 4 4 5 6 3 2 5 8 16 21 24 24 21 22 23 22 21 19 19 18 18 17 16 15 13 12 11 10 8 8 8 8 7 7 8 9 9 9 9 9 9 10 11 11 11 11 11 11 13 14 14 13 12 10 8 7 6 7 7 7 10 12 12 13 14 14 14 15 16 18 16 15 15
3 2 2 2 0 2 2 2 2 2 5 6 4 5 5 7 8 7 8 8 7 5 6 6 6 7 6 5 3 5 9 9 15 21 23 23 21 22 22 22 21 19 19 18 18 17 16 15 13 12 11 9 8 8 8 7 7 7 7 8 8 8 8 8 9 9 10 11 11 11 11 11 11 13 13 13 12 10 8 6 6 7 7 7 10 11 11 12 12 13 13 14 15 16 15 15 15
2 2 1 0 2 2 2 3 4 3 3 5 5 5 6 9 9 8 7 6 4 5 6 6 11 10 4 4 5 8 8 7 15 20 22 22 22 22 22 21 20 19 19 18 18 17 16 15 14 12 11 9 8 8 8 7 7 7 7 7 7 7 8 8 8 9 9 10 10 10 10 10 10 11 11 12 12 10 9 7 6 6 7 7 9 10 11 11 11 12 12 13 13 13 14 14 14
3 2 0 2 2 4 3 2 3 3 1 3 4 5 11 12 12 8 5 4 3 4 6 10 12 5 2 4 4 7 6 9 15 19 21 21 23 23 22 21 20 20 19 18 17 17 16 15 14 13 11 9 8 8 7 7 6 6 7 6 6 6 7 7 7 8 9 9 9 9 9 9 8 9 9 11 11 10 9 7 6 7 7 7 8 9 10 11 11 11 11 11 11 11 12 13 14
4 1 1 2 1 3 3 2 1 2 2 4 3 6 13 14 13 8 4 2 3 5 8 12 7 1 6 5 4 8 8 11 15 19 22 21 23 24 22 21 20 20 19 18 17 17 16 15 14 13 12 10 9 8 8 7 6 6 6 6 5 6 6 6 7 7 8 8 8 9 9 8 7 7 7 8 8 9 8 7 7 7 7 7 8 9 10 11 11 11 11 10 11 11 11 12 13
3 1 1 2 2 4 3 1 1 2 4 4 3 7 14 16 12 8 6 3 4 6 7 9 3 2 9 5 5 9 10 13 16 21 22 20 22 22 22 21 19 19 19 18 17 16 16 15 14 13 12 10 10 9 9 7 6 6 6 6 6 6 6 6 6 7 8 8 8 8 8 8 7 6 6 6 6 7 7 8 8 7 8 8 9 10 11 11 11 10 10 10 10 11 11 12 12
2 2 3 4 3 2 2 3 3 4 4 4 3 7 14 16 11 6 5 5 6 6 7 6 3 7 9 4 6 10 12 14 18 23 21 21 21 21 22 21 19 19 19 19 17 17 16 15 14 13 12 11 11 10 9 8 7 6 6 6 6 6 5 5 6 6 7 8 7 7 8 7 7 6 6 6 6 6 6 8 8 8 9 9 9 10 11 11 10 10 9 10 10 10 11 11 11
2 2 3 4 2 3 4 3 3 5 4 3 2 7 13 14 8 6 7 7 7 5 7 5 6 10 6 1 7 11 14 15 19 21 19 22 21 20 21 20 20 19 18 18 17 18 17 16 15 14 13 12 12 11 10 9 8 7 6 6 6 6 5 5 5 5 6 7 7 6 6 6 6 6 6 6 7 7 8 8 9 10 10 9 9 10 10 10 10 9 9 9 9 10 10 10 9
3 1 5 2 2 3 3 4 3 2 3 4 4 7 13 12 8 12 11 8 7 5 6 5 9 11 3 2 6 12 15 16 20 20 18 21 22 21 21 21 20 19 19 19 18 18 18 17 16 15 14 13 13 12 11 11 10 9 7 7 7 7 6 5 5 5 5 6 6 5 5 5 5 5 5 6 6 7 8 9 10 11 11 10 10 10 10 10 9 9 8 8 8 9 9 9 8
3 4 5 2 1 2 5 3 2 2 3 6 5 8 14 10 7 15 13 7 7 7 6 6 12 9 3 4 6 15 18 18 22 20 19 20 22 21 20 22 20 21 20 19 18 17 18 18 17 16 15 14 14 13 12 11 11 10 8 8 7 7 7 6 5 5 5 5 5 5 4 4 5 5 5 5 6 6 7 8 10 11 11 11 10 10 9 9 9 8 8 7 6 7 8 8 7
4 4 4 3 2 1 4 2 2 5 4 4 6 11 14 8 7 14 14 8 6 8 8 8 13 6 3 6 6 16 20 21 24 22 21 20 22 21 20 22 21 22 21 19 18 17 18 18 18 17 16 16 15 14 13 12 12 11 10 9 8 7 8 7 6 5 5 5 6 5 4 4 5 5 5 5 6 6 7 8 10 12 12 11 10 10 9 9 8 8 7 6 6 6 6 7 7
4 3 4 3 1 2 4 2 3 3 5 5 8 13 11 5 9 15 12 8 7 10 10 8 14 7 5 8 4 13 21 22 25 24 24 23 23 23 21 21 21 22 22 21 19 18 18 18 18 17 17 17 16 15 14 13 13 13 12 10 9 8 8 7 6 6 5 6 6 5 5 4 4 5 5 6 6 7 7 8 10 12 11 10 9 9 9 8 8 7 6 6 5 5 5 6 7
3 3 4 2 2 3 4 4 4 3 5 5 10 16 10 2 10 14 10 7 9 14 11 8 15 12 7 7 4 13 22 22 26 27 26 25 26 25 24 24 23 23 23 22 21 20 19 18 19 18 18 18 17 16 15 14 13 14 13 12 11 9 9 8 8 7 5 5 5 5 5 4 4 4 5 6 6 7 7 8 10 11 11 10 9 9 8 7 7 6 5 5 5 5 5 5 6
3 3 3 2 3 4 5 7 7 4 4 7 12 16 11 5 10 12 8 6 9 12 11 9 14 13 9 8 6 15 23 22 26 28 28 28 29 28 27 26 26 25 24 24 23 22 21 20 20 19 19 19 18 18 17 16 15 15 14 14 13 11 11 10 9 8 7 6 5 5 5 5 5 4 5 6 7 7 7 8 10 10 10 9 8 8 7 6 5 5 4 4 4 4 4 5 6
3 3 3 3 6 4 4 6 7 4 2 8 13 13 12 9 12 13 7 5 9 9 8 9 12 12 10 9 10 17 23 23 25 27 29 29 29 30 28 28 28 27 26 25 24 24 23 21 21 20 20 20 19 19 18 17 16 16 15 15 14 14 13 12 11 10 8 6 6 6 6 6 6 6 6 6 8 8 8 9 10 11 10 9 8 7 6 5 4 4 3 3 2 3 4 4 5
2 3 2 5 7 4 3 4 6 6 4 8 12 10 10 10 13 12 8 5 6 8 10 10 12 14 13 11 14 20 23 23 24 25 27 27 28 28 27 27 27 26 25 24 24 25 24 23 22 21 21 21 21 20 19 18 17 17 16 16 15 15 15 14 12 11 10 8 7 7 7 7 7 7 7 7 8 9 9 9 10 10 10 9 7 6 5 5 4 3 2 2 2 2 3 4 4
2 4 3 5 5 2 3 2 3 8 8 10 12 9 7 10 12 11 9 7 3 11 18 17 16 17 16 15 17 21 23 24 24 25 26 27 27 26 24 23 22 22 22 23 24 25 25 24 23 22 22 22 22 21 21 20 19 19 18 17 16 16 16 16 14 13 12 10 9 9 8 9 9 9 8 9 9 9 10 10 10 10 10 9 8 7 6 5 4 3 2 1 2 2 3 4 4
3 2 2 4 5 2 2 1 1 5 8 10 11 9 7 9 10 11 13 8 7 14 19 20 17 17 17 17 19 21 23 24 25 25 25 26 26 25 23 22 22 22 23 23 23 24 24 25 24 23 23 23 23 23 22 21 21 20 20 19 18 18 18 17 16 15 14 12 11 10 10 10 10 10 10 10 10 10 10 10 10 10 11 11 10 9 7 6 5 4 3 2 3 3 3 4 6
2 2 1 3 5 1 2 1 1 4 10 13 11 8 8 9 7 10 16 15 13 10 12 17 18 16 17 18 19 21 22 24 24 24 24 24 24 23 22 22 22 22 22 22 21 22 24 25 25 24 24 25 24 24 24 23 23 22 21 21 20 19 19 19 18 17 15 14 13 12 11 10 10 10 11 11 11 11 11 11 11 11 11 11 11 10 8 7 6 5 4 4 4 5 5 6 9
3 2 1 3 3 2 2 2 2 5 8 11 10 8 8 10 5 6 16 22 18 9 7 12 17 18 18 19 20 20 21 22 22 22 21 21 20 19 19 20 21 22 23 22 21 22 24 25 26 26 26 26 26 25 25 25 24 23 23 23 22 21 20 20 20 19 18 16 15 14 13 12 12 11 12 12 12 12 12 12 11 11 12 12 12 11 10 9 8 7 6 6 6 6 7 8 12
2 3 3 4 3 3 3 3 4 4 6 8 9 7 7 9 4 4 15 21 17 13 10 9 13 18 19 20 21 21 21 21 21 21 22 22 22 22 22 23 23 24 25 23 22 22 23 25 26 27 27 27 27 26 26 26 26 25 25 24 23 22 22 21 21 21 19 18 17 16 15 14 13 13 13 13 13 13 12 12 12 12 13 13 13 12 11 11 10 9 8 8 7 8 8 10 15
3 5 6 5 3 2 4 3 4 5 6 6 6 3 3 6 3 8 17 19 16 15 13 10 10 14 18 19 20 20 21 22 21 22 22 23 25 26 25 25 25 25 24 23 23 23 23 24 26 27 27 27 27 27 27 27 27 27 26 25 25 24 23 22 22 22 21 20 19 18 17 16 15 14 14 15 14 13 13 13 13 13 13 13 13 13 13 13 11 10 9 9 9 9 9 11 16
6 8 8 6 4 2 2 3 3 3 4 4 4 2 3 3 1 7 11 10 13 17 17 16 13 12 14 16 18 20 22 22 21 22 23 24 26 26 25 26 26 25 25 24 24 23 23 25 26 27 28 28 28 28 29 28 28 28 27 26 26 25 24 23 23 24 24 22 21 20 19 18 17 17 16 16 16 15 14 13 13 13 13 14 14 14 14 14 13 12 11 10 10 10 10 12 17
11 12 7 6 4 1 1 2 2 2 3 2 4 2 3 1 2 10 10 4 8 14 18 19 18 17 16 16 17 19 21 21 22 24 24 25 24 23 24 24 24 24 24 23 22 24 25 25 26 27 29 29 29 29 30 30 30 29 28 27 27 27 25 25 25 25 25 24 22 22 21 20 20 19 19 18 18 17 15 14 13 13 13 14 15 16 16 16 15 14 13 12 11 11 12 14 18
11 9 4 6 8 3 1 2 2 2 2 1 3 1 4 2 9 16 10 5 6 9 15 19 20 21 20 19 19 19 20 21 24 26 25 24 22 22 22 21 22 23 23 22 23 25 25 26 26 27 28 30 30 30 30 31 31 30 30 29 28 28 27 27 26 26 27 25 24 24 23 22 22 21 21 20 20 19 17 15 14 13 13 14 15 17 17 18 17 16 15 14 13 13 13 15 18
7 4 4 3 7 4 3 1 2 2 1 1 3 1 6 7 16 18 9 7 8 8 12 16 19 22 23 22 21 21 20 22 25 25 23 23 23 23 22 21 22 24 24 24 26 26 25 26 27 28 28 30 30 29 30 31 31 31 31 30 29 29 29 29 28 28 28 27 26 25 24 24 23 23 23 22 22 22 20 18 16 15 15 15 16 18 19 19 19 18 17 15 14 14 14 16 19
3 2 3 3 1 4 5 1 4 4 1 1 5 1 6 8 13 11 9 12 13 14 16 16 18 20 23 24 24 23 22 23 24 23 23 23 23 24 23 22 24 25 25 26 27 26 26 26 27 28 29 29 30 30 30 30 30 31 31 31 30 30 31 31 31 30 30 29 28 27 26 25 24 24 25 24 24 23 21 20 18 16 16 17 18 18 20 20 20 19 18 16 16 16 16 18 19
3 2 1 3 3 5 8 1 6 5 2 1 5 1 6 9 10 3 3 8 10 15 17 16 17 18 21 24 24 25 24 23 24 23 24 23 23 24 23 23 24 25 26 26 27 27 27 27 28 28 29 30 30 30 30 29 29 30 31 31 30 30 31 32 33 32 31 30 30 29 27 26 25 24 25 25 25 23 22 21 19 18 18 19 19 20 21 21 20 20 19 18 17 17 18 20 21
4 3 2 2 2 3 5 1 4 3 2 1 2 2 3 5 6 1 3 2 3 8 12 13 15 16 19 21 23 25 24 24 25 25 24 24 23 23 22 22 23 24 25 26 26 27 27 28 28 28 29 29 29 29 29 29 29 30 30 30 31 31 32 34 34 33 31 29 30 30 28 27 27 25 25 25 25 24 23 21 20 20 20 20 21 22 22 22 21 21 21 19 18 18 20 22 23
2 2 2 3 3 2 2 3 3 1 2 1 1 2 6 7 9 8 5 5 6 9 12 13 14 16 17 19 22 23 24 25 26 25 24 23 23 21 21 20 21 22 23 25 25 26 26 27 28 28 28 28 28 29 29 29 28 29 30 30 31 31 32 33 32 31 30 30 29 29 28 28 28 27 27 26 26 25 24 23 22 22 23 23 24 24 23 23 22 22 22 20 20 20 22 23 25
5 3 3 2 2 2 3 3 2 2 2 2 0 2 10 11 13 19 20 15 15 18 19 20 21 22 22 23 25 25 26 28 28 25 23 23 22 21 21 21 21 22 22 23 24 25 25 25 26 27 28 28 28 28 28 28 28 28 30 31 32 32 32 32 31 30 32 34 34 30 28 29 30 29 28 28 28 28 28 26 24 24 25 26 26 27 26 24 24 23 23 22 22 22 24 25 27
9 7 5 5 4 3 5 4 4 1 3 3 5 5 9 11 11 17 25 20 15 19 23 25 27 28 29 30 31 31 32 34 31 27 26 25 24 23 23 23 23 23 23 23 23 24 25 25 25 26 27 28 28 28 28 29 29 29 30 32 34 34 33 34 35 34 33 37 37 33 30 29 31 31 29 29 30 29 31 31 28 26 28 29 29 30 29 26 25 25 24 24 24 25 27 28 29
7 6 5 4 4 3 4 3 5 1 3 4 4 5 9 11 11 15 26 22 15 20 24 28 31 32 34 34 35 35 35 35 32 29 28 26 26 25 25 24 24 25 24 24 24 24 24 24 25 25 25 27 29 29 29 30 31 31 31 32 34 34 35 36 37 37 36 37 37 36 34 32 34 33 30 32 34 32 33 33 31 30 31 33 32 32 30 29 28 27 26 26 27 27 29 30 31
6 6 5 2 3 3 2 1 4 3 1 3 2 3 9 11 11 16 22 17 14 23 25 28 33 34 36 37 37 37 35 34 31 29 28 26 26 25 25 26 26 26 25 24 24 23 23 24 25 25 24 26 28 29 30 30 30 30 31 31 31 32 34 35 36 36 37 38 37 37 37 34 35 37 36 36 37 36 36 35 33 32 34 36 36 34 33 34 31 29 28 28 29 29 30 31 33
5 4 6 3 2 2 3 3 4 5 1 4 5 6 9 10 10 15 20 18 20 27 27 30 33 33 36 37 37 36 35 34 31 28 26 25 25 25 25 26 25 25 24 25 25 24 25 25 25 25 25 26 27 28 29 29 29 29 30 30 30 31 32 34 34 34 35 37 37 38 38 35 34 39 43 43 40 39 41 40 35 32 35 38 40 39 37 36 34 32 30 29 31 32 31 33 35
4 4 5 3 2 1 1 3 4 4 2 2 4 6 9 7 6 12 19 21 23 26 27 29 31 32 36 35 34 33 32 30 26 22 20 19 20 21 23 23 23 23 24 24 25 25 25 24 24 24 24 24 25 26 27 28 29 29 30 30 30 31 32 33 34 34 36 37 38 37 37 36 33 35 41 42 40 39 41 43 38 36 37 39 42 45 45 41 38 36 33 30 33 34 34 34 36
0 3 6 3 3 4 3 1 2 3 4 3 4 6 7 4 4 8 10 9 13 18 19 23 25 25 27 27 26 26 23 20 17 14 12 12 14 16 17 18 19 21 21 22 22 22 23 22 22 22 22 23 23 24 26 27 29 30 31 32 32 33 33 34 35 35 37 39 39 38 37 36 35 36 38 40 40 40 40 41 42 41 43 44 43 46 50 46 40 38 36 33 35 37 37 35 36
2 3 6 7 7 6 3 2 4 4 4 4 4 3 6 5 5 7 6 5 9 12 12 21 26 21 20 20 18 16 14 12 12 10 9 9 11 13 15 16 17 18 17 17 18 19 20 20 20 21 21 21 21 23 24 27 29 31 32 32 33 33 34 35 35 35 36 37 37 39 38 36 37 38 40 41 42 42 42 43 45 43 45 48 47 47 50 47 41 40 38 36 35 38 39 37 38
2 4 5 7 7 8 6 4 4 1 2 3 3 2 5 7 6 8 6 7 10 13 11 20 29 25 21 21 19 17 15 12 9 8 7 8 9 11 12 13 14 14 13 13 15 16 18 18 19 19 19 19 20 21 23 25 28 29 31 31 32 32 33 33 33 32 34 35 35 37 38 38 39 40 41 42 42 43 44 44 44 42 42 46 48 52 52 48 44 42 41 40 36 37 40 40 41
3 4 6 8 8 8 6 6 4 2 3 4 4 4 2 6 7 6 4 6 9 11 11 15 22 21 17 17 18 17 14 12 9 7 7 7 7 8 8 8 9 10 10 12 13 14 15 16 16 17 18 19 19 20 21 23 25 27 28 29 30 31 32 32 31 32 33 34 35 36 37 38 40 41 42 43 43 44 44 45 45 45 44 43 45 52 54 50 47 45 46 44 39 40 41 39 41
4 3 7 7 7 7 5 6 4 1 1 4 4 2 2 6 8 5 4 4 8 11 11 12 16 19 17 16 14 10 8 10 9 7 7 6 6 6 6 8 9 10 11 11 12 12 13 14 15 16 17 18 18 19 20 21 22 24 25 26 28 29 29 30 31 32 33 34 35 36 37 38 40 41 42 42 42 42 42 45 46 48 48 46 43 47 51 52 52 52 50 46 44 46 42 37 41
4 6 7 6 6 6 5 5 4 3 2 4 5 3 2 5 7 5 2 3 7 10 10 10 15 18 13 9 5 3 6 8 8 7 8 7 7 8 8 9 10 11 12 12 12 12 13 13 14 15 15 16 16 17 18 19 20 21 23 24 25 25 26 28 30 32 33 34 35 36 37 38 39 40 40 40 40 40 42 44 45 45 47 49 47 44 48 55 59 58 54 49 50 49 42 41 46
10 8 7 7 6 5 4 3 4 3 3 6 6 4 2 4 7 5 4 4 6 5 6 8 12 14 7 3 5 6 7 7 7 7 7 8 8 8 8 9 10 11 12 12 11 11 10 11 11 12 12 13 14 15 16 17 18 19 20 21 22 23 24 26 28 30 31 32 33 34 35 36 37 38 39 39 39 40 43 45 46 44 45 51 52 46 48 57 61 60 57 53 50 46 43 48 50
8 5 5 5 3 4 4 4 3 1 5 6 5 2 3 4 7 5 6 7 6 6 6 8 10 13 8 8 8 7 8 8 7 7 7 8 7 7 7 8 9 10 10 9 8 8 8 8 9 9 9 10 12 13 14 15 16 17 18 19 20 21 22 24 26 27 28 29 30 31 32 33 35 36 37 38 39 41 43 45 46 46 45 50 53 51 52 57 59 59 58 53 46 43 50 54 49
5 5 6 5 2 2 2 3 0 3 6 4 3 1 3 6 8 8 10 11 8 9 10 9 11 12 8 10 9 8 8 8 7 7 8 8 6 5 6 7 7 7 7 7 7 7 7 7 7 7 7 8 10 11 12 13 14 15 16 17 18 19 21 23 24 25 26 26 27 28 29 30 31 33 34 35 37 39 41 44 46 48 49 50 52 53 53 54 55 56 55 51 47 51 58 56 49
4 5 5 4 3 2 2 4 2 4 4 3 3 2 3 5 5 8 13 11 6 6 10 11 13 11 5 4 5 6 6 6 6 6 8 8 6 5 6 6 6 6 6 6 6 6 7 7 7 7 7 7 8 9 10 11 12 13 14 16 16 17 19 20 21 23 24 25 26 27 28 28 29 30 31 32 32 34 37 40 43 48 52 54 54 53 52 51 53 55 54 53 55 61 61 53 48
3 4 6 5 5 5 4 4 3 4 3 3 3 1 3 3 3 6 12 13 13 14 16 15 13 10 7 6 4 4 4 5 5 6 8 8 8 8 9 8 7 7 6 6 5 5 5 6 6 5 5 6 8 9 10 11 11 12 13 14 15 16 17 18 19 21 22 23 24 25 26 27 28 29 29 29 30 31 34 36 39 43 48 54 57 57 55 53 53 55 57 59 60 60 55 48 48
1 2 5 3 5 5 2 3 5 3 2 3 2 4 5 4 6 9 10 12 14 15 16 15 14 10 9 10 7 5 6 6 6 7 7 8 9 11 10 9 9 8 6 5 4 3 2 3 3 2 3 4 6 7 9 10 11 12 13 14 15 16 17 18 19 19 20 21 23 24 25 26 26 27 28 28 29 30 32 33 36 39 42 48 54 58 59 58 56 55 55 57 57 53 50 48 52
2 2 3 5 4 7 5 2 1 3 2 3 1 5 6 4 7 9 6 8 10 9 11 14 14 12 11 11 8 6 7 8 9 7 5 7 10 11 11 11 10 10 9 8 7 6 5 4 3 3 2 2 3 5 7 8 10 12 14 15 17 18 19 20 20 20 21 21 23 24 24 25 25 26 27 27 28 29 31 32 34 37 38 41 46 52 56 58 58 56 54 54 53 51 51 53 57
5 3 6 4 2 4 4 2 3 3 3 4 1 5 5 2 5 6 4 6 9 9 9 10 12 14 14 14 12 9 7 9 11 8 6 9 12 13 13 13 13 12 11 11 10 8 7 6 5 5 5 5 5 6 8 9 11 12 13 15 17 20 22 22 22 22 23 23 24 24 24 25 25 25 26 26 27 28 30 31 32 35 37 38 41 45 49 51 53 54 55 54 54 54 55 57 59
4 4 4 4 2 1 2 2 2 1 2 4 4 5 4 5 6 4 1 7 9 10 9 8 10 13 15 17 14 7 3 6 6 4 6 9 13 14 14 13 13 13 12 10 8 6 5 4 4 3 3 4 4 6 8 10 12 13 14 15 16 18 21 23 25 25 26 26 25 26 26 26 25 26 26 26 27 27 28 30 31 32 35 36 39 43 45 46 47 49 51 52 53 55 57 58 58
4 3 3 3 2 4 3 3 4 3 3 3 4 4 4 7 7 5 8 10 9 10 9 8 12 17 17 17 14 6 2 2 2 1 5 10 14 14 13 13 12 12 11 8 5 4 3 4 4 4 4 4 4 7 9 11 13 14 15 16 16 17 18 21 24 26 27 28 28 28 28 28 27 27 27 27 27 27 27 28 29 30 32 34 36 39 41 42 44 47 50 51 52 54 58 58 56
3 3 4 2 1 2 2 1 2 4 4 3 3 5 6 6 4 8 11 9 8 10 9 8 16 22 20 16 13 8 2 6 5 4 8 13 15 14 13 12 9 8 8 4 1 4 5 7 7 7 6 5 6 10 11 12 13 14 15 16 17 17 18 20 22 24 27 28 29 30 30 30 30 29 29 28 28 27 28 28 28 28 30 33 35 36 38 40 42 46 50 52 51 53 58 56 54
6 6 7 7 5 4 3 3 1 3 3 4 3 5 8 6 4 7 8 7 9 11 9 10 17 22 20 16 11 2 8 11 8 6 10 13 12 11 11 9 5 3 3 3 5 7 9 10 11 12 12 10 9 12 13 13 14 15 16 17 18 19 20 21 22 23 25 26 28 30 30 31 31 30 31 30 30 29 29 29 29 27 28 31 35 37 39 41 44 45 47 50 50 52 55 54 54
Wind_Direction
232 241 261 280 296 286 316 336 92 358 63 91 355 121 222 201 190 160 139 151 105 341 164 158 140 141 139 124 138 113 107 158 164 144 195 155 144 153 157 158 158 153 149 145 145 142 143 143 143 143 137 133 130 127 123 120 116 109 98 88 83 80 77 73 73 75 79 76 72 74 77 83 94 101 102 104 103 101 96 89 91 94 94 95 101 102 99 96 93 92 92 95 90 81 79 84 89
235 252 280 287 298 279 264 35 92 344 54 106 258 164 245 331 130 183 184 192 153 121 112 120 118 113 102 104 107 87 80 158 174 151 141 143 146 156 160 159 157 155 152 149 149 146 147 146 145 143 138 134 129 126 122 122 118 112 100 89 84 80 79 77 76 78 80 78 74 75 78 87 96 99 102 105 105 105 101 96 95 95 97 100 107 104 100 97 95 93 91 91 86 78 73 79 88
240 266 291 260 270 285 225 53 87 79 83 159 254 245 253 135 186 209 203 167 132 123 110 108 100 90 85 87 79 85 91 89 153 141 141 150 155 158 160 159 157 157 154 152 151 149 150 149 148 145 141 135 129 126 124 125 120 113 102 92 88 82 80 80 80 80 80 77 75 77 80 91 102 104 105 107 109 110 109 110 106 100 99 106 112 105 101 99 97 97 94 90 83 76 72 76 87
246 273 266 217 254 334 80 54 129 123 126 191 239 260 236 178 202 219 187 142 137 131 118 110 77 61 63 91 97 105 115 131 148 146 151 159 160 158 159 159 159 160 157 155 154 153 154 154 152 150 146 140 136 133 132 132 125 118 107 99 94 86 82 82 85 84 81 76 74 77 81 94 109 113 111 110 113 117 118 118 113 107 104 112 114 106 104 102 101 101 95 90 84 76 72 75 82
251 255 222 231 288 82 94 70 117 115 176 184 165 255 242 199 199 196 158 146 158 167 166 132 84 87 95 107 110 130 143 143 153 156 158 160 159 160 159 160 162 162 161 160 158 159 159 158 157 156 152 148 146 143 142 138 133 127 114 105 97 88 82 83 89 89 83 76 74 75 80 94 114 120 117 116 118 120 121 119 116 116 115 120 116 108 106 102 101 101 96 92 89 82 77 78 80
244 201 216 266 8 114 122 126 148 162 212 167 151 239 229 205 196 169 146 146 172 182 164 141 128 129 100 94 86 134 144 144 162 164 159 158 162 164 162 162 166 166 166 164 164 164 163 162 161 162 160 155 152 150 148 145 143 137 124 111 102 93 83 86 96 96 88 80 75 76 80 91 112 123 123 124 126 124 123 125 123 121 121 127 120 111 106 103 102 100 99 97 96 93 88 85 84
208 180 241 132 70 53 109 151 180 192 198 169 174 198 192 203 194 163 141 137 139 151 164 153 140 128 99 107 105 139 149 154 165 165 161 161 166 169 167 165 170 171 170 168 168 169 168 167 166 168 164 157 154 154 152 152 152 146 139 122 111 102 90 92 100 102 95 86 79 79 83 89 110 128 133 134 136 136 138 138 126 121 128 135 126 115 109 105 104 99 97 95 97 101 101 98 96
161 172 357 113 58 30 89 117 205 188 137 217 222 181 180 189 183 166 145 143 139 148 156 155 144 114 137 146 141 155 151 161 165 166 165 165 170 172 170 169 174 175 174 172 170 172 173 172 172 172 167 162 158 157 157 157 159 154 151 139 124 112 98 96 105 109 103 94 85 81 84 87 105 127 142 148 150 152 153 147 132 128 135 145 135 121 113 107 103 98 94 93 94 102 109 111 108
162 186 28 96 89 34 50 28 286 224 285 252 228 181 180 181 178 163 134 118 134 144 147 159 155 83 174 163 160 158 145 162 167 169 170 169 173 175 172 173 178 178 178 176 174 175 177 178 176 175 172 169 163 161 162 161 166 166 164 159 142 124 109 103 110 119 116 107 96 88 87 89 98 118 137 150 161 169 170 164 152 142 142 153 143 123 114 108 103 98 96 94 93 98 107 110 111
161 102 108 81 87 52 27 322 282 249 274 256 217 189 179 177 176 159 139 127 139 143 151 171 189 145 164 159 152 156 152 164 170 172 175 173 175 178 174 175 181 182 182 179 179 179 180 182 180 180 179 177 174 168 165 163 168 176 178 169 153 136 120 112 114 123 127 120 108 96 91 92 96 108 122 130 144 166 176 173 161 151 151 157 143 123 114 109 106 103 100 97 93 93 97 102 108
148 32 101 72 73 100 178 216 260 270 281 294 254 198 181 175 166 147 138 139 150 146 151 170 185 146 146 155 161 161 162 169 173 173 177 178 179 181 177 177 181 187 187 183 183 183 184 186 184 185 186 186 184 178 173 170 170 173 180 170 158 154 136 124 121 124 132 128 117 102 93 93 94 101 109 116 118 130 148 156 155 154 158 158 142 126 116 113 111 105 98 94 91 88 90 96 106
172 4 80 83 124 183 194 176 239 279 309 308 218 193 182 174 158 153 152 154 162 157 165 177 179 154 127 180 176 170 169 170 173 176 181 182 182 181 182 181 181 189 192 188 186 185 187 190 189 189 191 193 190 188 185 182 178 175 183 182 175 173 156 140 134 128 136 136 129 113 100 96 95 99 100 107 110 115 125 134 143 151 158 156 140 127 118 116 110 99 88 84 87 88 90 95 104
178 138 96 101 159 163 161 147 233 306 332 261 203 185 180 178 177 174 161 157 164 160 181 188 175 159 132 219 191 183 174 170 175 182 188 186 186 183 185 185 184 188 192 193 190 189 191 194 194 193 195 197 196 196 194 192 188 185 189 194 189 183 172 163 157 142 143 146 142 130 112 101 99 102 99 101 104 109 118 126 138 149 155 152 139 128 120 116 106 92 81 75 80 89 95 99 107
167 151 115 118 102 127 150 136 227 170 246 249 199 180 178 185 199 177 159 156 177 173 179 184 177 165 166 202 206 193 174 170 179 186 192 190 190 188 187 186 186 189 192 195 193 194 195 197 199 199 200 200 201 201 200 200 198 195 195 197 195 191 184 179 174 158 154 158 158 152 133 115 109 111 112 111 112 113 119 128 140 149 152 149 139 132 127 118 104 91 81 73 74 86 99 106 112
150 139 104 101 71 133 171 169 173 153 223 222 175 179 173 193 213 182 168 166 183 174 164 171 181 181 206 193 207 196 177 171 180 187 191 189 191 193 192 187 188 191 193 196 196 200 200 201 203 204 206 204 205 205 205 204 204 205 201 202 203 200 197 191 185 171 165 167 169 168 155 138 126 128 134 134 131 128 129 136 145 150 152 150 143 139 134 122 107 94 84 76 72 80 95 106 114
134 123 80 81 113 193 179 179 134 131 242 196 163 172 162 198 199 186 184 174 173 171 169 176 187 210 236 196 195 192 180 173 177 185 190 189 193 196 198 194 193 194 195 197 199 202 203 205 206 207 209 208 208 209 211 208 207 210 206 207 208 210 209 202 197 187 178 173 174 177 170 159 146 143 150 153 148 141 142 146 153 155 156 156 150 147 142 127 113 100 90 81 77 79 91 104 115
129 98 72 78 178 200 187 177 169 167 230 197 166 169 154 164 183 187 197 189 178 172 180 190 193 216 237 205 187 184 182 177 176 183 189 191 195 199 202 200 198 198 198 200 202 204 205 207 208 210 210 210 211 211 213 212 211 212 209 210 210 213 213 210 209 202 193 185 184 186 181 174 167 163 162 166 163 154 154 156 161 163 164 165 158 157 150 135 121 106 96 87 84 87 93 105 117
136 99 102 178 187 200 188 177 191 168 187 191 177 174 161 151 173 183 191 194 185 175 191 199 197 214 219 204 199 184 183 182 179 183 189 192 198 201 203 202 201 202 202 202 204 206 207 208 210 211 211 211 211 213 214 215 215 215 212 211 212 213 213 214 215 212 206 202 202 197 192 189 183 182 174 175 177 170 166 164 169 174 175 173 168 166 160 148 131 112 99 88 91 102 105 110 119
121 102 120 213 203 206 201 186 197 177 182 183 175 179 172 166 169 171 181 191 179 176 198 202 203 210 201 198 199 188 186 188 186 186 191 195 198 202 204 203 204 206 208 207 205 207 208 209 211 212 213 213 213 214 215 216 217 218 216 214 214 214 215 216 218 219 212 207 213 206 200 198 194 194 189 187 188 185 179 174 177 184 188 183 179 176 171 163 146 125 108 94 99 115 120 120 122
139 115 137 238 213 210 232 220 209 207 221 173 168 177 174 173 170 171 183 179 184 199 199 198 205 205 196 190 187 187 190 192 191 192 195 198 200 203 205 205 207 211 213 213 210 209 210 210 213 214 214 215 216 216 216 217 218 221 220 217 216 216 218 219 219 222 216 207 210 211 209 205 203 204 200 196 194 196 192 186 185 191 196 194 189 187 183 176 163 148 125 115 130 134 136 130 129
170 136 181 228 193 174 224 232 226 223 224 183 166 160 168 182 178 180 170 151 235 227 208 206 211 204 194 188 184 188 193 194 195 197 200 201 203 206 210 211 212 216 217 217 216 214 214 213 214 215 215 216 218 219 219 220 221 222 222 221 219 218 220 222 221 222 219 210 208 213 215 210 208 210 208 204 201 201 200 197 194 194 199 199 197 196 196 192 184 176 161 164 176 165 157 143 143
145 170 234 187 159 139 196 212 259 216 199 174 160 152 173 182 186 196 178 169 227 228 220 218 220 213 206 200 191 190 195 198 199 201 203 205 208 211 214 215 217 219 221 220 220 220 218 218 217 217 217 217 219 221 223 224 225 225 225 224 221 221 223 224 224 224 223 217 212 214 217 216 212 211 213 211 208 204 201 204 203 200 201 203 204 203 206 207 205 208 203 207 207 196 183 161 158
151 244 279 158 179 192 140 159 225 182 167 166 167 165 173 173 196 211 200 212 224 226 235 228 228 225 219 214 201 197 199 201 204 207 208 208 211 215 216 217 218 220 223 224 224 224 222 222 221 220 219 219 220 221 223 225 227 227 228 227 225 225 225 226 226 225 226 223 220 219 219 222 220 216 216 215 213 208 205 206 210 211 208 209 211 211 214 218 218 221 221 218 216 209 196 176 166
129 182 216 150 197 220 142 108 138 175 172 172 173 173 179 179 194 219 218 230 233 237 251 233 232 228 222 218 212 211 209 208 211 213 214 215 217 219 221 222 223 225 227 228 227 226 225 225 224 223 222 222 222 222 223 225 228 228 229 229 228 227 228 229 230 228 228 227 225 224 222 222 224 222 219 218 216 212 210 209 212 216 216 216 217 217 219 225 227 224 224 221 219 217 204 184 173
101 165 183 144 143 195 167 114 119 154 166 164 165 176 195 193 200 248 235 237 235 234 239 236 233 226 222 221 222 221 217 217 217 216 217 220 221 222 224 225 227 229 230 231 230 230 228 228 227 226 225 224 224 224 224 226 228 229 229 230 229 228 229 231 232 231 229 229 228 228 227 224 224 222 219 220 219 216 214 211 213 216 220 222 222 223 223 226 229 228 225 219 221 224 213 190 178
194 153 156 138 103 145 168 154 124 132 152 156 160 176 207 198 244 270 250 246 240 234 230 232 230 221 220 222 226 227 225 225 222 220 220 220 221 222 225 226 229 232 233 234 234 234 232 230 230 229 229 228 227 227 227 227 229 230 230 231 231 230 230 231 233 233 231 230 229 230 231 229 227 223 219 222 222 220 219 217 216 217 221 225 225 225 226 227 226 227 226 221 222 225 220 198 183
174 128 111 97 83 113 157 172 144 133 145 153 166 199 245 195 211 259 252 251 240 233 229 230 231 225 222 224 230 233 234 234 231 227 223 221 221 224 225 225 230 233 234 235 235 235 234 233 233 232 232 231 229 230 231 230 231 233 233 232 232 232 231 231 233 235 234 232 230 230 231 232 230 225 220 222 225 224 224 225 223 222 224 225 226 225 227 229 225 223 224 224 225 224 221 203 189
148 126 96 30 24 73 103 151 165 157 136 142 144 161 267 130 187 240 239 254 247 234 231 232 233 234 234 235 236 237 237 237 235 232 227 225 225 228 229 229 233 234 235 238 237 236 236 235 236 234 234 234 232 232 234 234 233 234 235 233 233 234 233 232 233 235 237 234 230 230 230 230 231 229 224 222 225 228 228 230 230 228 229 228 228 228 227 228 226 222 220 222 225 225 219 204 194
130 116 102 349 3 13 310 119 160 182 130 147 115 94 281 225 228 238 234 246 254 234 232 234 236 240 241 241 241 239 239 236 233 232 232 231 232 234 236 239 240 239 240 242 239 238 237 236 237 238 236 236 236 235 236 237 237 237 237 236 234 234 234 233 234 235 238 237 233 230 229 229 230 232 230 224 224 228 229 231 233 233 232 231 230 230 229 228 228 224 221 221 224 225 220 209 199
118 73 97 23 9 346 297 76 154 177 129 168 128 240 273 253 243 242 237 248 252 242 240 238 239 242 243 242 241 240 239 236 234 235 235 235 236 239 243 245 244 245 246 243 241 241 240 237 237 239 239 238 238 238 238 238 239 239 240 240 236 235 236 237 237 236 237 238 236 233 230 228 229 232 234 230 225 225 229 230 232 233 232 233 233 232 231 230 228 227 225 224 224 224 220 215 205
97 48 61 47 97 273 300 15 156 155 193 191 118 185 261 273 272 260 246 253 256 252 250 247 244 243 243 242 241 242 241 240 242 241 240 241 242 245 249 249 247 248 248 245 246 245 243 241 238 238 239 240 240 240 240 240 240 240 241 243 240 236 236 239 240 239 238 238 237 235 234 231 229 231 235 235 231 227 228 229 228 230 232 233 233 232 230 230 229 228 228 228 227 224 221 217 210
39 98 315 345 165 260 308 266 169 159 195 146 109 200 265 278 288 318 261 258 256 250 249 248 248 245 244 243 242 245 246 245 246 245 243 244 244 247 250 251 251 250 250 250 251 249 247 245 241 239 239 239 240 240 241 242 242 242 243 244 245 241 237 238 239 241 242 240 237 236 237 236 233 233 235 236 237 234 231 231 229 228 230 232 233 231 229 229 229 227 227 229 230 229 225 219 214
1 102 192 256 170 264 314 284 211 176 137 100 103 215 262 290 273 70 48 327 285 260 255 250 250 251 249 248 247 249 251 249 247 247 246 246 247 250 252 254 253 252 253 253 251 251 250 248 245 242 240 240 241 241 240 241 241 243 244 244 245 243 240 239 239 242 245 243 239 237 238 241 239 239 239 238 238 237 236 236 236 232 230 231 233 232 230 229 228 228 227 226 230 234 232 224 217
291 58 131 217 190 198 283 302 265 128 112 249 26 232 248 276 275 269 283 293 299 289 276 268 264 260 257 254 252 252 253 253 252 251 252 252 253 253 255 257 256 254 254 253 251 250 250 250 250 247 244 242 241 241 241 242 242 242 244 245 245 244 242 243 242 244 247 247 245 243 238 239 244 244 242 242 242 241 239 241 243 240 236 231 232 234 233 231 228 226 228 228 228 232 235 231 222
190 180 145 208 215 198 245 268 239 100 83 226 172 273 261 269 278 274 271 274 285 284 280 279 275 270 265 261 258 256 257 257 256 256 258 258 256 255 258 260 258 256 255 254 252 249 248 248 249 249 247 244 242 242 242 243 244 242 243 244 245 245 243 244 244 244 244 244 247 251 244 240 246 248 245 243 244 244 240 240 243 244 243 236 231 232 232 232 231 228 228 229 229 230 233 233 227
169 175 146 157 177 230 242 248 267 149 120 226 216 232 264 270 277 277 273 275 282 280 278 277 273 270 266 263 261 260 259 260 259 259 260 259 258 258 261 262 259 257 254 254 251 248 247 245 245 245 246 246 242 240 240 240 241 240 240 240 241 242 240 238 240 241 241 240 241 248 251 251 248 245 245 245 244 244 241 239 242 244 246 242 234 233 231 231 235 236 233 230 230 229 228 228 227
136 132 115 145 174 240 257 272 306 50 145 252 237 232 263 268 272 273 274 279 283 275 273 270 267 265 263 262 262 260 259 261 263 262 259 257 257 258 259 260 258 254 251 250 250 248 246 244 244 243 244 245 243 240 238 238 239 239 239 239 239 239 237 235 234 235 238 239 239 242 249 255 249 242 245 248 244 242 240 239 242 242 244 244 241 239 237 233 231 234 235 232 231 232 231 227 224
101 129 132 145 185 227 256 260 317 9 140 266 352 307 266 260 266 271 274 278 267 260 259 261 262 262 262 262 261 262 262 264 265 263 260 257 257 257 257 257 254 251 248 248 248 248 247 246 246 245 245 245 245 244 242 241 241 242 244 245 245 242 240 239 237 234 235 238 240 242 247 250 247 243 246 250 246 242 242 242 243 243 244 245 244 242 240 235 230 230 234 234 232 232 233 232 228
86 117 133 151 209 242 288 297 332 18 86 271 353 336 272 256 258 263 263 258 256 258 256 259 263 263 262 262 263 265 267 268 267 265 261 258 257 256 255 253 251 249 248 247 247 247 248 248 249 249 248 247 247 247 246 246 246 246 249 251 251 249 247 245 244 241 238 239 240 241 246 246 243 242 243 245 244 243 244 243 244 249 249 247 243 241 240 235 231 231 234 239 237 231 230 233 233
89 109 132 174 233 173 249 293 328 14 72 278 334 317 283 272 270 264 259 255 261 266 263 262 263 263 266 266 267 268 270 270 270 267 263 257 253 252 251 250 249 247 246 246 246 246 247 249 251 252 252 251 250 249 249 249 248 247 248 250 252 252 251 249 247 244 240 241 243 242 244 244 242 244 244 244 244 246 245 241 244 253 257 253 245 244 244 235 229 230 232 238 239 233 230 232 234
65 139 144 164 195 169 187 276 335 359 18 30 17 324 292 308 325 285 273 268 267 270 272 271 265 263 268 269 267 266 268 270 273 275 268 256 250 247 246 245 244 244 244 245 246 247 248 250 252 254 255 255 254 252 251 249 247 246 245 246 247 248 248 248 246 244 241 241 244 245 245 243 241 242 244 244 245 248 248 247 251 255 257 254 247 247 245 235 229 230 232 239 243 238 234 235 236
265 223 178 171 171 162 160 53 53 32 351 348 29 342 285 316 320 273 289 331 296 286 287 281 277 272 268 266 265 264 265 269 276 279 270 255 246 240 239 237 236 237 239 242 244 246 248 250 252 254 256 256 256 255 252 250 248 248 247 247 247 248 249 248 248 248 247 245 245 245 245 244 241 240 242 243 245 247 249 252 255 256 255 251 248 251 246 236 233 233 234 241 244 241 236 237 241
214 238 173 147 132 130 138 115 88 109 256 311 51 126 264 308 291 259 294 329 302 296 294 280 276 274 271 270 271 269 264 259 261 266 260 248 236 233 236 236 235 234 233 235 237 239 243 246 250 252 255 255 256 255 253 251 250 250 251 252 254 255 256 257 258 257 256 255 253 249 247 245 242 241 242 244 247 249 250 252 254 254 254 249 250 254 247 238 237 238 242 244 242 242 239 240 246
216 232 130 121 119 133 145 116 104 194 236 325 16 119 232 291 269 261 319 325 301 295 290 279 273 273 278 279 280 278 262 244 240 244 240 234 229 231 232 229 228 222 220 225 227 232 239 243 248 250 253 254 253 253 252 252 252 252 254 255 257 258 260 263 264 262 261 260 258 256 254 250 248 247 245 245 246 248 250 253 253 252 250 246 252 255 249 243 241 244 246 241 238 242 242 247 252
237 205 119 118 123 128 120 101 98 42 5 311 310 137 194 269 275 301 339 307 290 281 273 274 283 291 294 286 282 276 242 222 225 223 215 214 212 210 206 203 204 200 201 208 214 222 230 235 241 244 247 250 250 250 250 250 252 253 254 255 257 259 262 264 264 264 263 262 261 260 258 256 254 253 251 249 248 248 250 251 250 250 249 248 253 255 250 245 244 248 247 241 242 241 238 251 257
173 139 96 78 74 81 77 89 98 47 6 254 237 187 200 265 281 305 327 274 262 266 268 273 294 306 304 288 266 200 186 199 206 202 197 196 187 184 188 190 191 189 189 193 201 209 218 225 232 238 243 247 248 248 248 248 249 250 252 253 256 258 260 261 263 264 263 263 263 262 261 260 258 256 255 251 248 247 248 250 250 251 252 250 251 254 252 247 244 244 243 243 246 239 238 258 259
137 112 73 62 37 38 47 51 80 65 290 256 240 215 176 272 277 257 230 230 219 243 287 293 308 328 349 71 111 133 155 173 184 187 185 181 171 168 177 181 181 180 181 185 192 201 213 222 230 236 241 245 247 246 246 246 247 249 251 253 256 258 259 260 261 263 263 264 264 264 264 264 262 260 258 253 248 244 244 248 250 252 253 249 245 249 254 251 247 243 240 240 240 238 248 261 256
116 85 84 89 5 13 25 359 45 124 253 262 266 243 150 225 259 250 245 254 224 218 269 282 300 328 10 78 99 119 141 153 164 174 172 166 160 158 163 168 170 173 177 182 191 202 213 225 234 241 244 247 249 248 247 247 247 249 252 254 256 258 260 260 261 263 264 264 265 266 266 265 265 263 260 256 251 245 241 243 247 249 251 249 246 249 255 253 248 244 242 239 240 249 259 257 249
79 89 97 92 2 9 351 308 328 224 245 269 286 243 197 233 247 255 264 269 247 220 233 254 279 307 11 74 92 105 126 138 146 160 161 154 156 160 160 164 166 169 178 190 200 211 222 233 245 252 256 258 258 256 253 251 250 251 254 257 259 261 261 261 263 265 265 266 267 266 265 265 265 264 263 261 258 254 248 245 245 246 248 249 249 250 253 253 248 245 243 241 249 261 260 252 247
125 130 125 127 121 102 264 265 278 262 258 296 295 250 261 276 265 246 249 258 259 239 253 275 283 290 334 58 103 111 133 150 150 161 159 156 167 177 177 177 173 174 187 201 213 224 234 245 255 261 266 266 265 263 259 255 254 256 259 261 261 261 261 262 265 267 268 269 269 268 267 266 266 265 265 265 264 262 259 255 250 248 247 248 250 250 250 251 250 249 247 247 256 262 255 247 249
175 156 132 146 157 158 210 216 210 246 276 307 297 250 209 234 284 256 252 269 281 273 274 284 286 284 284 258 206 168 195 197 180 177 169 169 180 189 191 185 178 182 191 203 218 231 240 247 252 255 257 260 261 260 258 257 259 262 262 264 265 265 265 266 266 268 269 270 271 270 270 269 269 269 269 269 268 266 264 262 258 253 248 246 247 249 249 249 249 249 248 249 255 257 248 245 254
233 119 109 163 184 145 135 185 176 175 320 316 260 236 216 215 278 279 272 286 286 273 269 270 272 277 273 260 242 217 224 220 205 188 177 184 188 189 189 180 173 173 170 171 174 184 207 221 228 234 243 256 267 270 273 277 278 275 272 270 269 268 268 268 268 270 272 273 274 274 273 272 271 272 272 272 272 271 270 269 264 258 252 247 245 245 246 247 248 249 249 250 253 249 245 251 261
169 129 174 209 170 113 112 226 33 79 258 279 220 250 288 319 289 286 291 298 301 291 271 262 264 272 277 271 255 246 249 234 219 206 191 195 190 184 178 168 162 154 144 135 124 116 108 99 86 65 51 7 337 321 317 317 309 299 292 285 278 274 271 271 271 272 273 273 273 272 272 273 273 274 275 276 277 278 277 276 271 262 255 249 245 244 245 245 246 248 250 251 251 248 250 257 261
130 180 204 185 104 85 110 197 356 44 247 276 265 246 281 311 273 309 341 283 288 293 278 277 277 271 270 266 262 272 273 233 219 219 213 198 184 176 169 161 156 148 139 127 111 94 80 66 49 39 29 18 6 352 346 341 332 323 313 302 292 285 281 278 276 274 273 272 271 271 272 273 275 276 277 278 279 281 282 282 277 266 257 250 245 243 246 247 246 247 249 251 252 252 253 256 259
121 173 166 118 136 183 96 147 187 136 237 274 294 274 257 213 234 301 299 222 244 264 272 289 276 258 256 259 265 289 276 213 212 229 224 201 183 175 169 164 159 153 145 129 106 80 64 39 7 350 329 328 333 334 338 336 331 327 319 313 307 299 290 283 280 279 277 275 272 272 272 272 275 276 277 278 279 281 283 283 281 271 260 251 244 240 243 246 246 247 248 250 251 251 251 254 258
58 97 105 84 138 169 160 154 166 171 198 250 306 320 267 226 214 206 216 218 216 235 255 270 264 259 256 253 261 298 4 130 120 194 209 191 184 180 174 171 167 163 156 135 98 48 19 340 320 300 278 286 319 331 334 330 327 322 316 313 312 308 298 287 281 279 278 277 276 276 275 274 275 276 277 279 280 281 283 283 280 273 262 251 243 239 240 243 245 246 247 248 249 251 252 255 259
109 128 158 184 87 104 161 180 126 141 162 193 268 288 267 249 206 191 211 221 208 214 228 240 252 256 254 256 274 297 37 99 112 178 184 178 181 183 177 172 167 169 168 152 31 335 329 321 312 298 282 287 322 333 331 325 322 318 313 310 308 306 301 294 287 281 278 277 276 277 278 279 279 279 278 279 281 282 284 284 280 272 262 251 243 239 240 243 246 248 250 251 251 253 255 255 256
168 177 188 184 166 129 159 235 230 126 156 173 184 264 267 248 204 197 205 214 216 216 218 233 247 255 265 282 294 259 130 113 108 135 156 163 166 169 170 167 165 191 214 270 302 311 318 319 312 302 293 291 313 327 322 317 316 313 310 307 303 300 298 296 293 289 285 281 278 279 280 281 282 283 284 283 283 283 283 284 281 274 262 251 243 240 241 243 246 247 250 252 252 254 257 257 256